DLH880 EDDF-EETN

Flight info

Callsign DLH880
Flight time N/A
Altitude 35000
Route TOBAK3W/25C TOBAK N858 FEDZA Y172 MAG DCT RENKI L132 BODLA DCT PENOR DCT ANFEV DCT DIPEB DCT EVONA DCT TODNA DCT SULUN
Aircraft A21N/M-SDE2E3FGHIRWXY/LB1

Departure

Time 2026-04-14 10:02
Airport Frankfurt Main Airport (EDDF)

Arrival

Time N/A
Airport Lennart Meri Tallinn Airport (EETN)
Time Latitude Longitude Altitude Speed Heading
2026-04-14 08:56 50.04561 8.56305 362 ft 0 kts 40°
2026-04-14 09:45 50.04543 8.56290 364 ft 3 kts
2026-04-14 09:45 50.04522 8.56296 361 ft 2 kts 339°
2026-04-14 09:45 50.04505 8.56315 363 ft 3 kts 283°
2026-04-14 09:46 50.04508 8.56351 361 ft 2 kts 249°
2026-04-14 09:46 50.04516 8.56382 365 ft 2 kts 249°
2026-04-14 09:46 50.04517 8.56387 364 ft 0 kts 249°
2026-04-14 09:50 50.04516 8.56383 364 ft 1 kts 249°
2026-04-14 09:50 50.04510 8.56355 361 ft 4 kts 250°
2026-04-14 09:50 50.04497 8.56302 361 ft 6 kts 250°
2026-04-14 09:51 50.04479 8.56227 364 ft 8 kts 250°
2026-04-14 09:51 50.04461 8.56148 363 ft 4 kts 250°
2026-04-14 09:51 50.04449 8.56095 362 ft 6 kts 248°
2026-04-14 09:51 50.04411 8.56042 367 ft 9 kts 201°
2026-04-14 09:52 50.04350 8.56049 363 ft 0 kts 158°
2026-04-14 09:53 50.04346 8.56051 362 ft 2 kts 158°
2026-04-14 09:53 50.04325 8.56064 363 ft 5 kts 158°
2026-04-14 09:53 50.04299 8.56104 366 ft 6 kts 118°
2026-04-14 09:53 50.04284 8.56176 362 ft 8 kts 119°
2026-04-14 09:54 50.04239 8.56238 363 ft 10 kts 154°
2026-04-14 09:54 50.04197 8.56264 360 ft 4 kts 161°
2026-04-14 09:54 50.04197 8.56265 360 ft 0 kts 161°
2026-04-14 09:55 50.04183 8.56272 365 ft 4 kts 161°
2026-04-14 09:56 50.04149 8.56276 358 ft 6 kts 193°
2026-04-14 09:56 50.04116 8.56228 362 ft 7 kts 245°
2026-04-14 09:56 50.04096 8.56143 358 ft 10 kts 250°
2026-04-14 09:56 50.04071 8.56034 361 ft 12 kts 250°
2026-04-14 09:57 50.04041 8.55907 357 ft 14 kts 250°
2026-04-14 09:57 50.04008 8.55768 364 ft 15 kts 250°
2026-04-14 09:57 50.03968 8.55603 356 ft 17 kts 249°
2026-04-14 09:57 50.03924 8.55423 356 ft 19 kts 249°
2026-04-14 09:58 50.03876 8.55227 362 ft 20 kts 249°
2026-04-14 09:58 50.03826 8.55018 358 ft 21 kts 250°
2026-04-14 09:58 50.03774 8.54794 356 ft 23 kts 250°
2026-04-14 09:58 50.03720 8.54570 358 ft 9 kts 249°
2026-04-14 09:59 50.03717 8.54560 357 ft 5 kts 249°
2026-04-14 09:59 50.03696 8.54478 350 ft 9 kts 249°
2026-04-14 09:59 50.03678 8.54395 356 ft 6 kts 253°
2026-04-14 09:59 50.03651 8.54328 349 ft 8 kts 216°
2026-04-14 10:00 50.03590 8.54321 356 ft 10 kts 163°
2026-04-14 10:00 50.03554 8.54339 348 ft 1 kts 161°
2026-04-14 10:00 50.03523 8.54356 352 ft 7 kts 161°
2026-04-14 10:00 50.03495 8.54423 350 ft 9 kts 89°
2026-04-14 10:01 50.03498 8.54451 352 ft 0 kts 74°
2026-04-14 10:01 50.03499 8.54453 352 ft 1 kts 74°
2026-04-14 10:01 50.03549 8.54680 354 ft 55 kts 68°
2026-04-14 10:02 50.03709 8.55419 358 ft 109 kts 63°
2026-04-14 10:02 50.04081 8.56683 367 ft 159 kts 71°
2026-04-14 10:02 50.04402 8.58567 383 ft 211 kts 71°
2026-04-14 10:02 50.04800 8.60824 1409 ft 222 kts 75°
2026-04-14 10:03 50.05071 8.63127 3176 ft 210 kts 77°
2026-04-14 10:03 50.05552 8.65378 4220 ft 231 kts 59°
2026-04-14 10:03 50.06121 8.67083 4616 ft 237 kts 62°
2026-04-14 10:03 50.06792 8.69436 5123 ft 239 kts 61°
2026-04-14 10:04 50.07794 8.71472 5829 ft 249 kts 36°
2026-04-14 10:04 50.09389 8.72793 6722 ft 272 kts 21°
2026-04-14 10:04 50.11189 8.73914 7787 ft 276 kts 20°
2026-04-14 10:04 50.12972 8.75036 8576 ft 286 kts 20°
2026-04-14 10:05 50.14842 8.76246 8998 ft 292 kts 21°
2026-04-14 10:05 50.16724 8.77491 9163 ft 296 kts 21°
2026-04-14 10:05 50.18627 8.78765 9217 ft 301 kts 22°
2026-04-14 10:05 50.20574 8.80079 9219 ft 307 kts 22°
2026-04-14 10:06 50.22556 8.81421 9218 ft 318 kts 22°
2026-04-14 10:06 50.24605 8.82812 9215 ft 325 kts 22°
2026-04-14 10:06 50.26701 8.84150 9202 ft 333 kts 16°
2026-04-14 10:06 50.29014 8.84646 9177 ft 338 kts 355°
2026-04-14 10:07 50.31367 8.84227 9207 ft 345 kts 350°
2026-04-14 10:07 50.33768 8.83652 9207 ft 353 kts 350°
2026-04-14 10:07 50.36225 8.83075 9204 ft 363 kts 351°
2026-04-14 10:07 50.38748 8.82510 9417 ft 364 kts 350°
2026-04-14 10:08 50.41170 8.81988 10283 ft 346 kts 351°
2026-04-14 10:08 50.43639 8.81461 11279 ft 369 kts 351°
2026-04-14 10:08 50.46222 8.80912 12241 ft 378 kts 351°
2026-04-14 10:08 50.48851 8.80351 12868 ft 385 kts 350°
2026-04-14 10:09 50.51531 8.80037 13124 ft 390 kts 359°
2026-04-14 10:09 50.54251 8.80652 13211 ft 398 kts 14°
2026-04-14 10:09 50.56820 8.82357 13219 ft 409 kts 29°
2026-04-14 10:09 50.59090 8.85140 13208 ft 420 kts 45°
2026-04-14 10:10 50.60875 8.88867 13212 ft 431 kts 60°
2026-04-14 10:10 50.62294 8.92999 13228 ft 442 kts 62°
2026-04-14 10:10 50.63758 8.97419 13250 ft 456 kts 63°
2026-04-14 10:10 50.65208 9.01860 13280 ft 467 kts 63°
2026-04-14 10:11 50.66752 9.06405 13325 ft 478 kts 61°
2026-04-14 10:11 50.68465 9.10969 13383 ft 489 kts 58°
2026-04-14 10:11 50.70437 9.15434 13460 ft 500 kts 52°
2026-04-14 10:11 50.72706 9.19658 13571 ft 511 kts 47°
2026-04-14 10:12 50.75270 9.23615 13667 ft 521 kts 41°
2026-04-14 10:12 50.78108 9.27282 13782 ft 531 kts 36°
2026-04-14 10:12 50.81159 9.30615 13917 ft 540 kts 32°
2026-04-14 10:12 50.84402 9.33609 14054 ft 550 kts 27°
2026-04-14 10:13 50.87872 9.36315 14192 ft 559 kts 23°
2026-04-14 10:13 50.91498 9.38657 14354 ft 569 kts 19°
2026-04-14 10:13 50.95270 9.40657 14511 ft 579 kts 15°
2026-04-14 10:13 50.99200 9.42318 14685 ft 587 kts 12°
2026-04-14 10:14 51.03247 9.43539 14872 ft 598 kts
2026-04-14 10:14 51.07385 9.44280 15058 ft 606 kts
2026-04-14 10:14 51.11637 9.44533 15268 ft 613 kts 359°
2026-04-14 10:14 51.15832 9.44284 15445 ft 621 kts 354°
2026-04-14 10:15 51.20149 9.43516 15658 ft 629 kts 350°
2026-04-14 10:15 51.24464 9.42094 15850 ft 636 kts 343°
2026-04-14 10:15 51.28813 9.40603 16040 ft 647 kts 349°
2026-04-14 10:15 51.31942 9.40222 16775 ft 52 kts 358°
2026-04-14 10:16 51.32871 9.40377 14649 ft 255 kts 10°
2026-04-14 10:16 51.35011 9.41554 12190 ft 381 kts 24°
2026-04-14 10:16 51.37442 9.43916 11463 ft 417 kts 37°
2026-04-14 10:16 51.39542 9.47297 10978 ft 441 kts 52°
2026-04-14 10:17 51.40984 9.51780 10729 ft 458 kts 74°
2026-04-14 10:17 51.41467 9.56619 12328 ft 420 kts 85°
2026-04-14 10:17 51.41590 9.61097 14018 ft 391 kts 95°
2026-04-14 10:17 51.41206 9.65369 15384 ft 399 kts 106°
2026-04-14 10:18 51.38923 9.73581 18558 ft 407 kts 124°
2026-04-14 10:18 51.37360 9.77367 20113 ft 411 kts 128°
2026-04-14 10:18 51.35629 9.81046 21701 ft 415 kts 131°
2026-04-14 10:19 51.33618 9.84404 23057 ft 426 kts 144°
2026-04-14 10:19 51.31025 9.86865 24016 ft 443 kts 160°
2026-04-14 10:19 51.27984 9.88123 24859 ft 464 kts 174°
2026-04-14 10:19 51.24684 9.88630 25699 ft 486 kts 177°
2026-04-14 10:20 51.21342 9.89061 26529 ft 477 kts 177°
2026-04-14 10:20 51.18123 9.89462 27395 ft 466 kts 177°
2026-04-14 10:20 51.14921 9.89849 28258 ft 455 kts 178°
2026-04-14 10:20 51.11802 9.90215 29157 ft 444 kts 178°
2026-04-14 10:21 51.08754 9.90578 30072 ft 432 kts 178°
2026-04-14 10:21 51.05835 9.91389 30848 ft 423 kts 165°
2026-04-14 10:21 51.03133 9.93102 31624 ft 413 kts 154°
2026-04-14 10:21 51.00731 9.95478 32419 ft 401 kts 145°
2026-04-14 10:22 50.98690 9.98318 33229 ft 396 kts 134°
2026-04-14 10:22 50.97094 10.01934 34116 ft 408 kts 115°
2026-04-14 10:22 50.96230 10.06272 34744 ft 422 kts 98°
2026-04-14 10:22 50.96160 10.11048 35110 ft 445 kts 85°
2026-04-14 10:23 50.96373 10.16096 35214 ft 473 kts 87°
2026-04-14 10:23 50.96523 10.21416 35233 ft 490 kts 88°
2026-04-14 10:23 50.96914 10.32371 35251 ft 504 kts 82°
2026-04-14 10:24 50.97668 10.37745 35310 ft 510 kts 69°
2026-04-14 10:24 50.99257 10.42752 35609 ft 510 kts 55°
2026-04-14 10:24 51.01711 10.46715 36224 ft 499 kts 31°
2026-04-14 10:24 51.04763 10.49124 37155 ft 484 kts 21°
2026-04-14 10:25 51.07829 10.51233 37727 ft 478 kts 24°
2026-04-14 10:25 51.10815 10.53619 37829 ft 484 kts 28°